sat.trackr.live / text

‹ back to catalog

STARLINK-3963

NORAD 52643 · 2022-052AX

PAYLOAD ACTIVE UNKNOWN

§ Identity

Operator
Country
US
Launch date
2022-05-14
Launch site
AFETR
Launch vehicle
Mass (kg)
RCS (m²)

Purposes: comms

External: N2YO · Heavens-Above · Gunter

§ Orbital elements

Epoch: 2026-05-24T18:10:39.232992Z

Period
95.44 min
Inclination
53.2141°
Eccentricity
0.0001246
Mean motion
15.08841838 rev/d
Perigee alt
538.9 km
Apogee alt
540.6 km
Semi-major
6,917.9 km
B*
8.8442e-5
RAAN
277.6100°
Arg perigee
93.3687°
Mean anomaly
266.7447°
Rev number
22,261

§ Raw data

STARLINK-39631 52643U 22052AX  26144.75739853  .00001120  00000+0  88442-4 0  99982 52643  53.2141 277.6100 0001246  93.3687 266.7447 15.08841838222615

JSON: /api/v1/satellites/52643 · /tle

For live sub-satellite position, see the globe view (requires WebGL).

§ Visibility from observer

Set your observer location to see the next 7 days of passes ≥ 10°. The values pass through the URL so the page stays shareable.

No JS? Fill the form by hand. The geolocation button needs JavaScript.